Powrót do katalogu

COSMOS 1275 DEB

AktywnyPO
NORAD 13812·DEBRIS·🇷🇺 Russia

Wystrzelony Jun 4, 1981 z Plesetsk Cosmodrome

Loading…

Następne Przeloty (najbliższe 24 godziny)

TLE

ŚwieżeSource: Space-Track

Epoka: Sep 14, 2026, 02:26 UTC

1 13812U 81053HG  26257.10205116  .00002968  00000-0  93485-3 0  9997
2 13812  83.2450 296.3757 0032288  46.4933 343.2365 14.39814528238600

Śledź COSMOS 1275 DEB w czasie rzeczywistym z AllMySat

Download on the App Store